DateTimeUTC,F1_A11,F1_S11,BsB_S11,BsG_S11,BsR_S11,BbsB_S11,BbsG_S11,BbsR_S11,BaB_A11,BaG_A11,BaR_A11,Tu_S11,T_S11,Uu_S11,U_S11,P_S11,T1_A11
2021-06-24T20:00:00Z,00000200,20000000,,,,,,,-000.19,-000.24,-000.06,20.4,27.1,08.8,05.9,0670.0,31.3
2021-06-24T20:01:00Z,00000200,20000000,,,,,,,0000.22,0000.07,0000.25,20.4,27.1,08.8,05.9,0670.0,31.3
2021-06-24T20:02:00Z,00000200,20000000,,,,,,,-000.05,-000.07,0000.03,20.4,27.1,08.8,05.9,0670.0,31.3
2021-06-24T20:03:00Z,00000200,60000000,,,,,,,0000.02,0000.32,0000.26,20.4,27.1,08.8,05.9,0670.0,31.3
2021-06-24T20:04:00Z,00000200,40000000,0000.64,0000.22,0000.41,0000.04,0000.35,-000.05,0000.20,0000.22,-000.07,20.4,26.9,09.0,06.1,0670.9,31.3
2021-06-24T20:05:00Z,00000200,00000000,0000.44,0000.13,0000.25,0000.47,0000.34,0000.14,0000.27,0000.24,0000.25,20.4,26.9,09.1,06.2,0670.9,31.3
2021-06-24T20:06:00Z,00000200,00000000,-000.03,-000.07,0000.38,0000.48,0000.17,0000.14,0000.02,-000.04,-000.20,20.4,26.8,09.2,06.2,0670.9,31.3
2021-06-24T20:07:00Z,00000200,00000000,0000.42,0000.11,0000.34,-000.26,0000.26,0000.17,0000.20,0000.28,0000.20,20.4,26.8,09.2,06.3,0671.0,31.3
2021-06-24T20:08:00Z,00000200,00000000,-000.42,0000.41,0000.26,0000.03,0000.20,0000.30,0000.34,-000.22,0000.38,20.4,26.8,09.3,06.3,0671.0,31.3
2021-06-24T20:09:00Z,00000200,00000000,0001.02,0000.04,0000.12,0000.22,0000.02,-000.08,0000.13,0000.43,-000.04,20.4,26.8,09.3,06.3,0670.9,31.3
2021-06-24T20:10:00Z,00000200,00000000,0000.48,0000.33,0000.35,-000.10,0000.09,0000.04,0000.01,0000.09,0000.17,20.4,26.8,09.1,06.2,0670.9,31.3
2021-06-24T20:11:00Z,00000200,00000000,0000.46,0000.60,0000.35,0000.40,0000.25,0000.01,-000.01,-000.17,-000.26,20.4,26.8,09.1,06.2,0670.9,31.3
2021-06-24T20:12:00Z,00000200,00000000,0000.35,0000.28,0000.07,0000.09,0000.11,0000.38,-000.04,0000.15,0000.07,20.4,26.7,09.0,06.1,0671.0,31.3
2021-06-24T20:13:00Z,00000200,00000000,0000.99,0000.34,0000.40,0000.28,0000.13,0000.15,0000.29,0000.14,0000.13,20.4,26.7,08.9,06.1,0670.9,31.3
2021-06-24T20:14:00Z,00000200,00000000,0000.16,0000.29,0000.76,0000.12,0000.22,0000.18,-000.15,0000.07,0000.12,20.4,26.7,09.0,06.1,0670.9,31.3
2021-06-24T20:15:00Z,00000200,00000000,0000.61,0000.39,0000.42,0000.20,0000.42,0000.33,0000.20,0000.05,0000.11,20.4,26.7,09.0,06.1,0671.0,31.3
2021-06-24T20:16:00Z,00000200,00000000,0000.51,0000.40,0000.45,0000.74,0000.37,0000.18,0000.29,0000.25,-000.00,20.3,26.7,09.1,06.2,0670.9,31.3
2021-06-24T20:17:00Z,00000200,00000000,0000.61,0000.71,0000.13,0000.17,0000.20,0000.22,0000.05,0000.04,-000.03,20.3,26.7,08.9,06.1,0671.0,31.3
2021-06-24T20:18:00Z,00000200,00000000,0001.11,0000.34,0000.28,0000.22,0000.20,-000.17,-000.02,0000.23,0000.38,20.3,26.7,09.2,06.2,0670.9,31.3
2021-06-24T20:19:00Z,00000200,00000000,0000.82,0000.31,0000.22,0000.32,0000.30,0000.05,0000.37,-000.07,0000.02,20.3,26.7,09.1,06.2,0670.9,31.3
2021-06-24T20:20:00Z,00000200,00000000,0000.65,0000.33,0000.33,0000.49,0000.14,0000.14,0000.06,0000.11,-000.04,20.3,26.7,09.1,06.2,0671.0,31.3
2021-06-24T20:21:00Z,00000200,00000000,-000.40,0000.35,0000.69,0000.11,-000.08,0000.13,0000.19,0000.22,0000.41,20.3,26.7,09.2,06.3,0670.9,31.3
2021-06-24T20:22:00Z,00000200,00000000,0001.31,0000.48,0000.60,0000.34,0000.17,0000.44,0000.12,-000.06,-000.05,20.3,26.6,09.2,06.2,0670.9,31.3
2021-06-24T20:23:00Z,00000200,00000000,0000.83,0000.20,0000.22,-000.08,0000.08,0000.10,0000.01,0000.24,0000.14,20.3,26.6,09.2,06.3,0670.9,31.3
2021-06-24T20:24:00Z,00000200,00000000,0000.08,0000.46,0000.42,0000.12,0000.35,0000.29,0000.39,0000.36,-000.05,20.3,26.6,09.2,06.2,0670.8,31.3
2021-06-24T20:25:00Z,00000200,00000000,0000.90,0000.57,0000.48,0000.27,0000.52,0000.12,-000.04,-000.16,0000.19,20.3,26.6,09.2,06.2,0670.8,31.3
2021-06-24T20:26:00Z,00000200,00000000,0000.29,0000.59,0000.34,0000.32,0000.46,0000.19,0000.03,0000.18,0000.20,20.3,26.6,09.2,06.3,0670.8,31.3
2021-06-24T20:27:00Z,00000200,00000000,0000.59,0000.65,0000.14,0000.38,0000.37,-000.00,0000.29,0000.07,-000.19,20.2,26.6,09.2,06.3,0670.8,31.3
2021-06-24T20:28:00Z,00000200,00000000,0000.57,0000.57,0000.03,0000.13,0000.47,0000.29,0000.19,0000.13,0000.13,20.2,26.6,09.2,06.3,0670.8,31.3
2021-06-24T20:29:00Z,00000200,00000000,0000.02,0000.63,0000.30,0000.14,0000.32,0000.08,-000.07,-000.03,0000.21,20.2,26.6,09.2,06.3,0670.8,31.3
2021-06-24T20:30:00Z,00000200,00000000,0000.77,0000.05,-000.03,0000.28,0000.19,-000.15,0000.40,0000.26,0000.20,20.2,26.6,09.2,06.3,0670.8,31.3
2021-06-24T20:31:00Z,00000200,00000000,0000.81,0000.50,0000.02,0000.40,0000.01,0000.01,-000.22,-000.03,-000.15,20.2,26.6,09.2,06.2,0670.8,31.3
2021-06-24T20:32:00Z,00000200,00000000,0000.64,0000.21,0000.22,-000.05,0000.17,-000.17,0000.20,0000.01,-000.01,20.2,26.6,09.3,06.3,0670.8,31.3
2021-06-24T20:33:00Z,00000200,00000000,0001.09,0000.16,0000.13,-000.28,0000.22,-000.01,0000.26,0000.45,0000.45,20.2,26.5,09.3,06.4,0670.8,31.3
2021-06-24T20:34:00Z,00000200,00000000,0001.39,0000.15,0000.53,0000.19,0000.21,0000.33,0000.32,0000.11,-000.04,20.2,26.5,09.3,06.3,0670.8,31.3
2021-06-24T20:35:00Z,00000200,00000000,0000.17,0000.60,-000.08,-000.13,0000.08,-000.02,-000.27,-000.20,-000.05,20.2,26.5,09.4,06.4,0670.7,31.3
2021-06-24T20:36:00Z,00000200,00000000,0000.39,0000.14,0000.67,0000.12,0000.03,0000.50,-000.06,0000.32,-000.02,20.2,26.5,09.4,06.4,0670.7,31.3
2021-06-24T20:37:00Z,00000200,00000000,0001.30,0000.13,0000.08,0000.07,0000.12,0000.21,0000.37,0000.25,0000.14,20.1,26.5,09.4,06.4,0670.7,31.3
2021-06-24T20:38:00Z,00000200,00000000,0000.67,0000.20,0000.38,-000.01,0000.31,0000.31,0000.12,0000.13,0000.37,20.2,26.5,09.5,06.5,0670.7,31.3
2021-06-24T20:39:00Z,00000200,00000000,0001.06,0000.28,0000.18,0000.21,0000.08,0000.06,0000.07,-000.21,-000.08,20.1,26.5,09.4,06.4,0670.6,31.3
2021-06-24T20:40:00Z,00000200,00000000,0000.45,0000.54,0000.54,-000.12,0000.27,0000.03,0000.30,0000.38,0000.21,20.1,26.5,09.3,06.4,0670.6,31.3
2021-06-24T20:41:00Z,00000200,00000000,0000.27,0000.35,0000.30,-000.16,0000.29,0000.38,0000.34,0000.14,0000.13,20.1,26.5,09.5,06.4,0670.6,31.2
2021-06-24T20:42:00Z,00000200,00000000,0000.42,0000.13,0000.45,-000.12,0000.35,-000.03,-000.28,-000.29,-000.15,20.1,26.5,09.5,06.4,0670.6,31.3
2021-06-24T20:43:00Z,00000200,00000000,0000.96,0000.10,0000.30,0000.09,0000.41,-000.10,0000.15,0000.33,-000.14,20.1,26.5,09.6,06.5,0670.6,31.3
2021-06-24T20:44:00Z,00000200,00000000,0000.43,0000.49,0000.06,-000.31,-000.01,-000.02,-000.03,-000.09,0000.31,20.1,26.5,09.5,06.4,0670.6,31.3
2021-06-24T20:45:00Z,00000200,00000000,-000.48,0000.25,0000.24,0000.03,-000.03,0000.34,0000.27,0000.30,0000.05,20.1,26.4,09.5,06.4,0670.6,31.3
2021-06-24T20:46:00Z,00000200,00000000,0000.11,0000.33,0000.32,0000.23,-000.02,0000.41,0000.13,0000.17,-000.07,20.1,26.4,09.6,06.5,0670.6,31.2
2021-06-24T20:47:00Z,00000200,00000000,0000.35,0000.30,0000.38,0000.27,0000.29,0000.04,0000.13,-000.10,0000.24,20.1,26.4,09.7,06.6,0670.5,31.2
2021-06-24T20:48:00Z,00000200,00000000,0000.37,0000.38,0000.06,0000.32,0000.11,0000.13,-000.13,0000.32,-000.01,20.1,26.4,09.5,06.4,0670.5,31.3
2021-06-24T20:49:00Z,00000200,00000000,0000.66,0000.05,0000.40,0000.02,0000.19,0000.25,-000.00,-000.15,0000.01,20.1,26.4,09.3,06.4,0670.5,31.3
2021-06-24T20:50:00Z,00000200,00000000,0001.00,0000.17,0000.30,0000.07,0000.25,-000.07,0000.28,0000.31,0000.07,20.0,26.4,09.5,06.5,0670.5,31.2
2021-06-24T20:51:00Z,00000200,00000000,0000.48,0000.13,0000.46,-000.30,0000.38,-000.22,0000.17,-000.22,0000.03,20.0,26.4,09.4,06.4,0670.4,31.3
2021-06-24T20:52:00Z,00000200,00000000,0000.29,0000.22,0000.48,0000.28,0000.29,0000.22,0000.07,0000.06,0000.03,20.0,26.4,09.5,06.5,0670.5,31.3
2021-06-24T20:53:00Z,00000200,00000000,0000.39,0000.23,-000.06,0000.35,0000.23,-000.08,0000.23,0000.29,0000.24,20.0,26.4,09.6,06.5,0670.5,31.2
2021-06-24T20:54:00Z,00000200,00000000,0000.40,0000.18,0000.33,-000.02,0000.35,0000.17,0000.07,0000.16,-000.08,20.0,26.3,09.6,06.5,0670.5,31.2
2021-06-24T20:55:00Z,00000200,00000000,0000.10,0000.52,0000.16,0000.85,0000.10,0000.21,0000.13,-000.10,0000.36,20.0,26.3,09.7,06.6,0670.5,31.2
2021-06-24T20:56:00Z,00000200,00000000,0000.47,0000.17,0000.27,-000.31,0000.15,0000.43,-000.11,0000.39,0000.18,20.0,26.3,09.6,06.6,0670.5,31.2
2021-06-24T20:57:00Z,00000200,40000000,,,,,,,-000.12,-000.40,-000.51,20.0,26.4,10.0,06.8,0670.4,31.3
2021-06-24T20:58:00Z,00000200,60000000,,,,,,,0000.16,0000.06,0000.24,19.8,26.5,09.5,06.3,0669.5,31.3
2021-06-24T20:59:00Z,00000200,20000000,,,,,,,-000.08,0000.10,0000.08,19.8,26.6,09.5,06.3,0669.5,31.2
